Location: Beuvrequen
(50.8014°N, 1.6652°E)
Time: 17:30:04
(UTC+00:00)

Cosmos 1844 - Pass Details

Date: 02 June 2022
Orbit: 821 x 869 km, 70.9° (Epoch: 29 June)

Event Time Altitude Azimuth Distance (km) Brightness Sun altitude
Rises 21:01:43 0° 329° (NNW) 3,466 9.1 -7.9°
Reaches altitude 10° 21:04:12 10° 330° (NNW) 2,526 7.8 -8.2°
Maximum altitude 21:10:02 88° 241° (WSW) 876 3.8 -8.7°
Enters shadow 21:15:35 11° 153° (SSE) 2,416 5.4 -9.3°
